Location: Sungai Liu
(2.3667°N, 113.8667°E)
Time: 14:28:12
(UTC+00:00)

SL-08 R/B - Pass Details

Date: 20 May 2022
Orbit: 674 x 737 km, 98.5° (Epoch: 06 July)

Event Time Altitude Azimuth Distance (km) Brightness Sun altitude
Rises 21:35:06 0° 189° (S) 3,050 6.3 -10.0°
Reaches altitude 10° 21:37:39 10° 202° (SSW) 2,124 5.4 -9.4°
Maximum altitude 21:41:28 26° 258° (WSW) 1,335 4.2 -8.5°
Drops below altitude 10° 21:45:16 10° 314° (NW) 2,101 5.5 -7.6°
Sets 21:47:47 0° 327° (NNW) 3,010 6.4 -7.0°
